Regional Weather Roundup
Issued by NWS Cleveland, OH

Home | Current Version | Previous Version | Graphics & Text | Print | Product List | Glossary On
Versions: 1 2 3 4 5 6 7 8 9 10 11 12 13 14 15 16 17 18 19 20 21 22 23 24 25 26 27 28 29 30 31 32 33 34 35 36 37 38 39 40 41 42 43 44 45 46 47 48 49 50
000
ASUS41 KCLE 291402
RWRCLE
OHIO REGIONAL WEATHER ROUNDUP
NATIONAL WEATHER SERVICE CLEVELAND, OH
1000 AM EDT WED JUL 29 2015

NOTE: "FAIR" INDICATES FEW OR NO CLOUDS BELOW 12,000 FEET WITH NO
SIGNIFICANT WEATHER AND/OR OBSTRUCTIONS TO VISIBILITY.

OHZ001>008-015>018-024>027-034-035-043-044-291500-
   NORTHWEST OHIO

CITY           SKY/WX    TMP DP  RH WIND       PRES   REMARKS
DEFIANCE       MOSUNNY   83  73  72 VRB3      29.97F
FINDLAY        MOSUNNY   83  72  69 CALM      29.98S
TOLEDO EXPRESS SUNNY     81  71  71 S5        29.96F
TOLEDO EXEC    CLOUDY    80  69  69 SW5       29.98S
LIMA           SUNNY     82  73  74 S5        30.00R
$$

OHZ009>014-019>023-028>033-038-089-291500-
   NORTHEAST OHIO

CITY           SKY/WX    TMP DP  RH WIND       PRES   REMARKS
CLE-HOPKINS    MOSUNNY   83  65  54 S6        30.01S
CLE-LAKEFRONT  SUNNY     85  64  49 S6        29.97S
CUY CO. ARPT   PTSUNNY   86  68  54 SE7       30.00S
LORAIN-ELYRIA  SUNNY     79  66  64 SW6       30.00S
ASHTABULA      SUNNY     80  70  71 S8        30.01S
AKRON-CANTON   SUNNY     81  68  64 VRB3      30.02R
WOOSTER        SUNNY     79  68  69 CALM      30.02S
MANSFIELD      SUNNY     83  65  54 SW3       30.02F
YOUNGSTOWN     MOSUNNY   79  68  69 SE5       30.02S
$$

OHZ042-051>053-060>062-070>072-077>081-291500-
  SOUTHWEST OHIO

CITY           SKY/WX    TMP DP  RH WIND       PRES   REMARKS
CINC-COVINGTON PTSUNNY   84  76  76 VRB3      30.00F HX  93
CINC-LUNKEN    SUNNY     81  76  84 CALM      29.99F HAZE
HAMILTON       MOSUNNY   84  75  74 CALM      30.00S HX  92
DAYTON         PTSUNNY   82  75  79 CALM      30.01S
WRIGHT-PAT AFB MOSUNNY   82  76  80 SW3       30.00S
DAYTON GENERAL MOSUNNY   82  73  74 SW3       30.00S
WILMINGTON     MOSUNNY   82  73  74 CALM      30.01S
$$

OHZ036-037-039>041-045>050-054>059-063>069-073>076-082>088-291500-
  CENTRAL AND SOUTHEAST OHIO

CITY           SKY/WX    TMP DP  RH WIND       PRES   REMARKS
COLUMBUS       MOSUNNY   82  68  62 CALM      30.00S
OSU AIRPORT    SUNNY     83  70  64 SW3       30.01R
BOLTON FIELD   SUNNY     81  73  78 CALM      30.01
RICKENBACK AFB   N/A    N/A N/A N/A MISG        N/A
NEWARK         SUNNY     82  70  66 CALM      30.01R
MARION         MOSUNNY   82  69  64 VRB5      30.01S
LANCASTER      SUNNY     83  72  69 CALM      30.01S
ZANESVILLE     SUNNY     80  70  71 CALM      30.01R HAZE
NEW PHILLY     SUNNY     79  71  76 CALM      30.02R HAZE
$$


USA.gov is the U.S. government's official web portal to all federal, state and local government web resources and services.